Regional Weather Roundup
Issued by NWS Wakefield, VA

Home | Current Version | Previous Version | Text Only | Print | Product List | Glossary Off
Versions: 1 2 3 4 5 6 7 8 9 10 11 12 13 14 15 16 17 18 19 20 21 22 23 24 25 26 27 28 29 30 31 32 33 34 35 36 37 38 39 40 41 42 43 44 45 46 47 48 49 50

000
ASUS41 KAKQ 281610
RWRAKQ

REGIONAL WEATHER ROUNDUP
NATIONAL WEATHER SERVICE WAKEFIELD VA
1100 AM EST WED JAN 28 2015

Note: "fair" indicates few or no clouds below 12,000 feet with no
significant weather and/or obstructions to visibility. * = Denotes
station may not report precipitation (e.g., rain,snow,etc.),
thunder or fog.

VAZ042-051-052>054-056-281700-
NORTHERN VIRGINIA

CITY           SKY/WX    TMP DP  RH WIND       PRES   REMARKS
WASH NATIONAL  SUNNY     32   7  35 NW17G23   30.26R WCI  21
DULLES         SUNNY     27   8  44 N13G26    30.25R WCI  16
FORT BELVOIR   SUNNY     29   7  38 NW18G26   30.26R WCI  17
QUANTICO       SUNNY     31   6  35 N16G25    30.28R WCI  20
FREDERICKSBRG* SUNNY     34   7  32 NW14G21   30.25S WCI  24
STAFFORD*      SUNNY     32   6  32 NW14G21   30.29S WCI  22
WARRENTON      SUNNY     34  13  42 N15G22    30.24R WCI  24
CULPEPER*      SUNNY     36   3  25 N13G20    30.25R
MANASSAS*      NOT AVBL
LEESBURG*      SUNNY     28  12  50 N14       30.26S WCI  17
WINCHESTER     SUNNY     30   3  31 NW17G24   30.25S WCI  18
FRONT ROYAL*   FAIR      32   7  34 NW8       30.24R
LURAY*         FAIR      34   7  32 NW8       30.23S
$$

VAZ048-049-060>072-079>083-281700-
CENTRAL AND SOUTH CENTRAL VIRGINIA

CITY           SKY/WX    TMP DP  RH WIND       PRES   REMARKS
RICHMOND       SUNNY     35   7  31 N16       30.24R
CHESTERFIELD*  FAIR      36   7  30 N14       30.26R
PETERSBURG*    SUNNY     36   7  30 N8G18     30.25R
HANOVER        SUNNY     33   6  32 VRB7G20   30.26R
TAPPAHANNOCK*  SUNNY     32   2  28 NW10G18   30.24S WCI  23
QUINTON*       FAIR      33   8  35 N9        30.24R
CHARLOTTSVILLE SUNNY     36  -1  21 NW10      30.22R
GORDONSVILLE*  FAIR      32  11  41 CALM      30.24R
ORANGE*        SUNNY     34  10  37 CALM      30.26R
LOUISA*        SUNNY     34  12  40 NW6       30.23R
BUMPASS*       FAIR      32   9  37 N7        30.25R
FARMVILLE*     SUNNY     41   9  26 N9        30.24R
CREWE*         FAIR      35   9  33 N3        30.24R
FORT PICKETT*  FAIR      34  15  45 NW6       30.24R
CHASE CITY*    FAIR      37  14  39 NW6       30.25R
CLARKSVILLE*   FAIR      34  18  51 CALM      30.25R
SOUTH HILL*    SUNNY     34  13  41 N6        30.30R
LAWRENCEVILLE* FAIR      34  15  46 N6        30.24R
EMPORIA*       SUNNY     34  14  44 NW10G17   30.26S
$$

VAZ088>098-281700-
SOUTHEAST VIRGINIA

CITY           SKY/WX    TMP DP  RH WIND       PRES   REMARKS
NORFOLK        SUNNY     33  13  43 N15G22    30.21R WCI  23
VIRGINIA BEACH SUNNY     35  16  45 NW17G26   30.20R WCI  25
NORFOLK NAVAL  SUNNY     35  12  38 NW16      30.23R
WEST POINT*    SUNNY     35   3  25 NW9       30.25S
SALUDA*        FAIR      31   9  39 N12       30.21S WCI  22
NEWPORT NEWS   SUNNY     36  13  38 N10       30.22S
LANGLEY AFB    SUNNY     33  11  40 NW10G17   30.21S WCI  24
FORT EUSTIS    SUNNY     33  16  49 N9        30.21S
WILLIAMSBURG*    N/A     37  12  35 N6        30.24S
HR EXEC AP*    FAIR      34  12  40 N9        30.25R
FRANKLIN*      SUNNY     33   9  36 N10G17    30.24S
WAKEFIELD      SUNNY     34   6  31 N10       30.24R
$$

VAZ020-022-025-037-045-281700-
WEST CENTRAL AND SOUTHWEST VIRGINIA

CITY           SKY/WX    TMP DP  RH WIND       PRES   REMARKS
STAUNTON*      SUNNY     31   8  38 CALM      30.25S
WAYNESBORO*    FAIR      29  12  49 NW5       30.21S
HOT SPRINGS VA SUNNY     18  10  72 NW16      30.07S WCI   3
LYNCHBURG      SUNNY     34   8  33 N8G17     30.24R
DANVILLE       SUNNY     36  15  42 NW10      30.27R
SOUTH BOSTON*  FAIR      36  13  38 W6        30.26R
MARTINSVILLE   SUNNY     36  16  43 N8        30.28R
ROANOKE        SUNNY     34  13  41 NW12      30.27R
BLACKSBURG     SUNNY     26  15  62 W7        30.25S
DUBLIN*        SUNNY     29  17  59 N7        30.25S
MARION*        SUNNY     27  16  62 W7        30.26R
HILLSVILLE*    SUNNY     25  15  65 N8G17     30.19R
RICHLANDS*     FAIR      20  12  69 CALM      30.24S
WISE*          SUNNY     25  18  74 CALM      30.26R
ABINGDON*      SUNNY     28  17  65 SW5       30.28S
$$

MDZ021>025-VAZ099-100-281700-
SOUTHERN MARYLAND AND THE DELMARVA PENINSULA

CITY           SKY/WX    TMP DP  RH WIND       PRES   REMARKS
PATUXENT RIVER SUNNY     30   8  39 NW16      30.21S WCI  19
BAY BRIDGE APT   N/A     30   5  34 NW13G20   30.21S WCI  20
LEONARDTOWN    SUNNY     32   5  32 N3        30.23S
DOVER          SUNNY     29   7  39 NW18      30.16S WCI  16
GEORGETOWN     NOT AVBL
EASTON         SUNNY     30   9  40 NW18G24   30.23R WCI  18
CAMBRIDGE      SUNNY     32   9  37 NW14G23   30.19S WCI  22
SALISBURY      SUNNY     33   7  33 NW14      30.17R WCI  23
OCEAN CITY     SUNNY     31   8  38 NW16G23   30.14S WCI  20
WALLOPS ISLAND SUNNY     32   9  38 NW15      30.17R WCI  22
ACCOMACK*      SUNNY     32  12  43 NW21G29   30.19R WCI  20
$$

NCZ012>017-030>032-281700-
NORTH CENTRAL AND EASTERN NORTH CAROLINA

CITY           SKY/WX    TMP DP  RH WIND       PRES   REMARKS
ROANOKE RAPIDS FAIR      36  14  41 N12       30.24S
RALEIGH        SUNNY     37  13  37 NE8       30.26R
ELIZABETH CITY SUNNY     34  16  47 NW16      30.21R WCI  24
AHOSKIE*       SUNNY     34   9  35 N13G21    30.24S WCI  25
EDENTON*       SUNNY     35  16  46 N12G18    30.22R
CURRITUCK*     SUNNY     33  16  50 NW10      30.21R WCI  25
KILL DEVIL HLS SUNNY     34  22  61 N14G21    30.17R WCI  25
MANTEO         SUNNY     34  21  60 N16       30.19R WCI  23
CAPE HATTERAS  PTSUNNY   37  27  67 N9G22     30.16R
TARBORO*       FAIR      38  14  38 N13G20    30.26R
GOLDSBORO      SUNNY     37  19  48 N10       30.23R
WASHINGTON     SUNNY     36  16  45 N10G21    30.22S
GREENVILLE     SUNNY     36  14  41 N12G17    30.24S
NEW BERN       SUNNY     39  18  42 N15       30.22R
WILMINGTON     SUNNY     38  18  44 N14       30.22R
$$

VAZ048-281700-
ELSEWHERE

CITY           SKY/WX    TMP DP  RH WIND       PRES   REMARKS
HARRISBURG PA  SUNNY     25   4  40 NW21G30   30.20S WCI  11
BALTIMORE      SUNNY     30   4  33 NW9G21    30.21R
ANNAPOLIS      SUNNY     30   8  39 NW16      30.21S WCI  19
ANDREWS AFB    SUNNY     29   6  38 NW15      30.22R WCI  17
PHILADELPHIA   SUNNY     27   1  32 NW21      30.15R WCI  13
HENDERSON NC   SUNNY     35  11  36 N7        30.25R
GREENSBORO     SUNNY     35  15  44 VRB3      30.24R
ROCKY MOUNT    SUNNY     38  14  37 N10       30.25R
$$

VAZ100-281700-
MARINE

STATION/POSITION TIME  TEMP    WIND        PRES    WAVE   SWELL
                       AIR SEA DIR/SP/G            HT/PER HT/PER
                 (UTC) (F)     (DEG/KT/KT) (MB)    (FT/S) (FT/S)
BRANDYWINE LGT   1600   25 36  340/ 25/ 29 1020.7R
CAPE MAY NJ      1600   28 34  320/  5/ 16 1020.3R
LEWES DE         1600   27 34  330/ 21/ 23 1021.0R
15NM E FENWICK I 1600   27 40              1019.3R   7/ 6
OCEAN-CITY-INLET 1600   28 35  340/ 19/ 25 1020.3R
WACHAPREAGUE VA  1600   31 36  300/  5/ 18 1021.7S
THOMAS POINT MD  1600   29 36  320/ 13/ 18 1024.0R
COVE POINT MD    1600   26     350/ 17/ 20 1022.9R
SOLOMONS ISLAND  1600      37                N/A
BISHOPS HEAD MD  1600   29 34  340/ 15/ 19 1022.1S
PINEY POINT MD   1600          340/ 16/ 19   N/A
CAMBRIDGE MD     1600   28 35  330/ 16/ 20 1022.3F
LEWISETTA VA     1600   29 36  330/ 12/ 17 1023.2F
RAPPAHANNOCK LGT 1600          330/ 22/ 25 1022.9S
YORK RVR RNG VA  1600   30     340/ 15/ 19 1022.5R
YORKTOWN VA      1600   31 39  310/ 12/ 17 1023.1R
DOMINION TERM VA 1600   30     350/ 13/ 17 1023.5R
KIPTOPEKE VA     1600      43  350/ 18/ 24   N/A
CHES BAY BRIDGE  1600   29 40  330/ 18/ 20 1022.6S
CAPE HENRY VA    1600   29     330/ 20/ 25 1021.5R
CHESAPEAKE LGHT  1500   30     340/ 23/ 25 1022.1R
WILLOUBY STN VA  1600   30     340/ 15/ 17 1023.6R
S CRANEY ISL VA  1600          340/  8/ 11 1023.2S
CAPE HENRY BUOY  1500      43                N/A     6/ 6   2/13
CAPE CHARLES BUO 1600      41                N/A     5/12   3/12
OFFSHORE WE BUOY 1600      44                N/A     8/ 7   5/13
64NM E OF VA BCH 1600   35 51  350/ 21/ 29 1019.7R  11/13   8/13
DUCK PIER NC     1600   32 41  340/ 18/ 23 1021.1R
44100 DUCK FRF   1600      46                N/A     9/14   5/14
44056 DUCK FRF   1600      42                N/A     7/14   3/14
OREGON INLET NC  1600   35 42  340/ 19/ 24 1021.4S
HATTERAS NC      1600   35 46   10/ 20/ 24 1021.5R
DIAMOND SHLS NC  1600   39 65  360/ 23/ 29 1019.9R   8/12   7/12
CAPE LOOKOUT NC  1500   35      10/ 15/ 21 1021.3R
$$


USA.gov is the U.S. government's official web portal to all federal, state and local government web resources and services.